Regional Weather Roundup
Issued by NWS State College, PA

Home | Current Version | Previous Version | Text Only | Print | Product List | Glossary Off
Versions: 1 2 3 4 5 6 7 8 9 10 11 12 13 14 15 16 17 18 19 20 21 22 23 24 25 26 27 28 29 30 31 32 33 34 35 36 37 38 39 40 41 42 43 44 45 46 47 48 49 50

000
ASUS41 KCTP 180110
RWRCTP

REGIONAL WEATHER ROUNDUP
NATIONAL WEATHER SERVICE STATE COLLEGE PA
900 PM EDT WED SEP 17 2014

Note: "fair" indicates few or no clouds below 12,000 feet with no
significant weather and/or obstructions to visibility.

* = STATION THAT DOES NOT REPORT PRECIPITATION /E.G. RAIN...SNOW...ETC/
    THUNDER OR FOG.

PAZ002>004-007>009-013>016-020>023-029>032-180200-
WESTERN PENNSYLVANIA

CITY           SKY/WX    TMP DP  RH WIND       PRES   REMARKS
ERIE           MOCLDY    57  49  74 S5        29.99R
MEADVILLE      CLEAR     54  47  77 N3        30.01R
FRANKLIN*      MOCLDY    52  45  76 N6        30.02R
NEW CASTLE     FAIR      51  49  93 CALM      30.00S
BEAVER COUNTY  CLOUDY    59  46  63 CALM      30.00R
BUTLER*        PTCLDY    54  46  76 CALM      30.01S
PITTSBURGH INT PTCLDY    63  47  55 N7        29.98R
PITTSBURGH     PTCLDY    62  46  55 N3        29.98R
INDIANA*       MOCLDY    54  50  87 CALM      30.03R
LATROBE        CLEAR     55  54  94 CALM      29.99R
WASHINGTON CO* CLEAR     52  48  87 CALM      29.99R
$$

PAZ004>006-010>012-017>019-024>028-033>037-041-042-045-046-049>053-180200-
CENTRAL PENNSYLVANIA

CITY           SKY/WX    TMP DP  RH WIND       PRES   REMARKS
BRADFORD       CLEAR     48  45  89 CALM      30.00S
DUBOIS         CLEAR     54  47  77 CALM      29.99S
CLEARFIELD     CLEAR     52  48  86 N5        30.00R
JOHNSTOWN      CLEAR     54  45  71 CALM      30.00S
ALTOONA        CLEAR     55  51  86 CALM      29.99S
STATE COLLEGE  PTCLDY    57  50  77 CALM      29.99R
WILLIAMSPORT   PTCLDY    57  50  77 CALM      29.97S
SELINSGROVE    CLEAR     52  50  93 CALM      29.98S
FT INDIANTOWN  CLEAR     54  52  93 CALM      29.98S
CAPITAL CITY   CLEAR     58  51  78 CALM      29.97S
HARRISBURG     PTCLDY    58  51  78 CALM      29.97S
YORK           CLEAR     51  48  89 CALM      29.98S
$$

PAZ038>040-043-044-047-048-054-055-060>062-067>071-180200-
EASTERN PENNSYLVANIA

CITY           SKY/WX    TMP DP  RH WIND       PRES   REMARKS
SCRANTON       CLEAR     55  43  63 E5        29.99S
MOUNT POCONO   CLEAR     47  32  56 CALM      30.01S
ALLENTOWN      CLEAR     56  47  71 CALM      29.99R
QUAKERTOWN*    CLEAR     54  50  87 CALM      30.00S
READING        CLEAR     59  49  69 CALM      29.98R
LANCASTER      CLEAR     62  46  55 NE5       29.98S
COATESVILLE    CLEAR     59  52  77 CALM      30.00S
POTTSTOWN      CLEAR     56  51  84 CALM      30.00R
BLUE BELL      CLEAR     54  52  94 CALM      29.98R
DOYLESTOWN     CLEAR     57  50  77 CALM      29.98S
WILLOW GROVE   NOT AVBL
NORTH PHILA    CLEAR     65  47  52 VRB3      30.00R
PHILADELPHIA   PTCLDY    66  52  60 CALM      29.98R
$$



USA.gov is the U.S. government's official web portal to all federal, state and local government web resources and services.